Weather Roundup
Issued by NWS

Home | Current Version | Previous Version | Graphics & Text | Print | Product List | Glossary Off
Versions: 1 2 3 4 5 6 7 8 9 10 11 12 13 14 15 16 17 18 19 20 21 22 23 24 25 26 27 28 29 30 31 32 33 34 35 36 37 38 39 40 41 42 43 44 45 46 47 48 49 50

000
NZUS93 KARX 241259
HRRWXR

CURRENT HOURLY OBSERVATIONS ACROSS
MUCH OF THE UPPER MISSISSIPPI VALLEY
NATIONAL WEATHER SERVICE LA CROSSE WI
800 AM CDT FRI OCT 24 2014


...SOUTHEAST MINNESOTA...


CITY           SKY/WX    TMP DP  RH WIND       PRES   REMARKS
ROCHESTER      FOG       46  45  96 S12       29.93F VSB 1/4
ROCHESTER/MAYO FAIR      46  46  98 SE12      29.93F
WINONA         CLOUDY    52  50  93 SE5       29.97F
AUSTIN         CLEAR     46  46 100 SE7       29.92F FOG
ALBERT LEA     CLEAR     48  46  93 S10       29.90F
DODGE CENTER   MOCLDY    48  46  93 S9        29.91F
PRESTON        FOG       47  46  99 SE8       29.96F VSB<1/4
OWATONNA       PTCLDY    52  46  82 SE10      29.89S
FARIBAULT      MOCLDY    52  46  82 SE6       29.89S
$$

...ELSEWHERE IN MINNESOTA...


CITY           SKY/WX    TMP DP  RH WIND       PRES   REMARKS
MINNEAPOLIS    CLOUDY    49  45  86 E7        29.89F
INTNL FALLS    CLOUDY    47  41  80 CALM      29.75R
DULUTH         CLOUDY    48  45  89 S8        29.87S
RED WING       CLOUDY    48  48 100 SE9       29.92S
REDWOOD FALLS  CLOUDY    43  41  93 SE5       29.83S
MANKATO        MOCLDY    54  45  71 S8        29.87R
WORTHINGTON    PTCLDY    52  48  87 SW13      29.84F
FAIRMONT       MOCLDY    52  45  76 S10       29.86S
$$

...SOUTHWEST WISCONSIN...


CITY           SKY/WX    TMP DP  RH WIND       PRES   REMARKS
LA CROSSE      CLOUDY    51  50  96 S10       29.99F FOG
PRAIRIE DU CHI FOG       51  50  96 E3        30.02S VSB 3/4
BOSCOBEL       CLOUDY    51  50  96 S3        30.04R FOG
LONE ROCK      CLOUDY    52  48  86 SE3       30.04R FOG
PLATTEVILLE    CLOUDY    50  49  97 SE5       30.05R VSB<1/4
FORT MC COY    CLOUDY    48  47  99 SE3       30.02S FOG
CAMP DOUGLAS   FOG       46  46 100 S3        30.02F VSB 1
VIROQUA        CLOUDY    47  47 100 CALM      30.02R VSB<1/4
WIS DELLS      FOG       46  45  96 CALM      30.04R VSB 1/4
$$

...ELSEWHERE IN WISCONSIN...


CITY           SKY/WX    TMP DP  RH WIND       PRES   REMARKS
MILWAUKEE      CLOUDY    51  48  89 W7        30.04S FOG
MADISON        FOG       49  48  97 CALM      30.05R VSB 3/4
GREEN BAY      CLOUDY    48  47  96 SW6       30.03R FOG
EAU CLAIRE     NOT AVBL
BLACK RVR FLS  CLOUDY    49  49 100 S3        30.00F FOG
MEDFORD        FOG       43  43 100 S5        29.98S VSB<1/4
WAUSAU         FOG       44  44 100 SW3       29.99F VSB 3/4
WIS RAPIDS     FOG       46  45  96 S5        30.03F VSB 1/4
MARSHFIELD     FOG       46  45  96 S7        29.99F VSB<1/4
RICE LAKE      CLOUDY    49  47  94 SE9       29.96F FOG
$$

...NORTHEAST IOWA...


CITY           SKY/WX    TMP DP  RH WIND       PRES   REMARKS
DECORAH        FOG       50  50 100 S6        29.99S VSB<1/4
MASON CITY     PTCLDY    46  45  96 SE8       29.94F FOG
CHARLES CITY   FOG       46  46 100 SE8       29.97F VSB<1/4
OELWEIN        FOG       46  46 100 SE8       30.01S VSB<1/4
$$

...ELSEWHERE IN IOWA...


CITY           SKY/WX    TMP DP  RH WIND       PRES   REMARKS
DES MOINES     FOG       59  57  93 S13       29.98S VSB 1/8
IOWA CITY      FOG       47  47 100 S7        30.07R VSB<1/4
FORT DODGE     CLOUDY    55  52  88 S14G21    29.92R
$$

...NORTHERN ILLINOIS...


CITY           SKY/WX    TMP DP  RH WIND       PRES   REMARKS
CHICAGO-OHARE  CLOUDY    52  46  80 W5        30.06R
CHICAGO-MIDWAY CLOUDY    54  47  77 SW6       30.06R
MOLINE         FOG       51  50  96 CALM      30.06R VSB 3/4
ROCKFORD       FOG       48  47  96 CALM      30.07F VSB 1
PEORIA         CLOUDY    49  45  86 NE3       30.08S FOG
$$

NOTE: "FAIR" INDICATES FEW OR NO CLOUDS BELOW 12,000 FEET WITH NO
SIGNIFICANT WEATHER AND/OR OBSTRUCTIONS TO VISIBILITY. WIND
SPEEDS ARE IN MILES-PER-HOUR.



USA.gov is the U.S. government's official web portal to all federal, state and local government web resources and services.